Location: Newark
(7.0858°N, 171.3717°E)
Time: 07:27:24
(UTC+00:00)

S-56A Canister/Altair - Pass Details

Date: 02 December 2020
Orbit: 633 x 2499 km, 38.9° (Epoch: 27 January)

Event Time Altitude Azimuth Distance (km) Brightness Sun altitude
Rises 14:18:03 0° 318° (NW) 3,318 - -58.7°
Reaches altitude 10° 14:20:48 10° 323° (NW) 2,220 - -58.1°
Maximum altitude 14:25:31 49° 38° (NE) 829 - -57.1°
Drops below altitude 10° 14:29:48 10° 114° (ESE) 2,006 - -56.2°
Sets 14:32:10 0° 120° (ESE) 2,961 - -55.7°
